Wind_Speed
13 17 17 17 19 19 20 20 22 24 24 26 26 25 21 22 24 25 27 28 28 28
18 17 17 17 19 20 21 23 25 26 26 25 24 23 22 21 20 20 22 25 27 29
16 16 16 19 20 22 24 25 26 26 25 25 25 25 25 25 24 23 21 22 24 25
17 18 20 20 21 22 24 25 26 27 27 28 29 29 29 29 30 30 29 29 28 26
16 19 21 22 22 23 25 26 26 27 27 28 30 30 28 29 30 30 32 35 35 35
16 19 21 22 22 24 26 25 25 24 28 30 29 28 28 26 29 33 34 35 36 37
15 17 19 21 23 24 24 25 26 28 27 27 27 29 28 31 32 30 32 31 35 35
15 18 20 22 24 25 25 23 25 25 24 25 31 32 28 31 33 34 35 33 31 30
18 19 22 24 27 26 22 24 27 25 25 31 27 27 33 32 35 35 32 32 34 39
19 21 25 29 27 22 24 26 23 24 31 27 29 28 30 36 35 36 35 37 39 33
22 26 28 27 24 25 26 23 24 27 26 29 25 33 37 33 37 41 41 39 35 33
24 26 27 25 25 25 24 26 26 27 26 26 34 37 36 38 38 35 35 34 35 37
27 27 25 25 25 27 28 26 29 25 27 31 33 36 35 36 31 32 32 36 39 38
26 28 25 27 27 27 27 27 25 29 31 34 34 38 37 34 29 30 34 38 40 37
Wind_Direction
293 298 299 300 303 307 308 306 302 300 297 299 302 305 310 314 313 312 311 310 309 310
291 298 305 307 308 308 307 307 307 306 306 305 304 301 302 304 306 307 309 308 306 303
298 303 306 310 312 312 311 311 312 312 311 309 305 301 299 303 302 299 297 299 300 299
299 308 315 321 321 319 316 318 317 316 316 313 311 310 309 308 304 304 303 299 297 297
302 312 320 323 322 319 322 323 325 327 327 324 323 323 319 317 313 313 311 310 307 304
317 321 320 320 319 319 322 326 327 326 326 327 330 332 332 325 317 317 319 320 320 319
321 318 315 312 315 320 324 325 326 328 334 337 336 332 331 323 323 318 316 314 318 318
317 311 308 312 317 320 322 328 329 332 335 327 325 327 329 324 318 314 318 321 321 317
314 304 307 313 320 322 329 324 325 331 325 326 330 330 320 316 317 321 322 320 313 312
304 304 309 316 321 325 321 323 326 318 322 330 328 322 318 322 316 314 313 310 312 310
306 310 315 318 322 319 320 319 317 324 324 324 316 318 324 316 311 313 315 315 314 309
312 315 317 320 321 321 313 315 323 323 328 317 320 324 325 325 320 320 318 314 313 316
316 314 315 315 314 315 310 319 319 319 320 317 324 322 327 326 324 322 324 323 320 319
315 314 309 309 312 308 315 313 316 314 314 322 324 331 331 331 329 327 324 324 324 324
Height
1613 1612 1609 1607 1604 1602 1599 1598 1595 1592 1590 1587 1584 1581 1578 1575 1572 1570 1567 1565 1563 1561
1608 1609 1608 1605 1602 1599 1596 1593 1590 1587 1584 1581 1579 1576 1572 1569 1566 1564 1562 1560 1557 1555
1607 1605 1602 1601 1599 1596 1592 1588 1585 1581 1578 1575 1572 1570 1567 1563 1561 1557 1555 1553 1550 1548
1603 1602 1600 1598 1595 1592 1588 1584 1581 1577 1574 1570 1567 1565 1562 1558 1554 1552 1549 1547 1544 1541
1599 1597 1595 1592 1589 1585 1583 1580 1577 1574 1571 1567 1564 1561 1557 1553 1550 1547 1544 1540 1537 1534
1598 1595 1592 1589 1586 1582 1578 1575 1572 1569 1567 1564 1560 1557 1554 1550 1546 1542 1538 1534 1531 1528
1594 1591 1589 1586 1582 1579 1575 1572 1569 1566 1563 1560 1557 1554 1550 1546 1541 1537 1534 1530 1527 1524
1591 1587 1584 1582 1579 1575 1572 1568 1565 1562 1559 1556 1553 1549 1545 1540 1535 1531 1526 1523 1520 1518
1587 1583 1580 1577 1575 1572 1568 1564 1561 1558 1554 1551 1548 1545 1539 1535 1529 1524 1520 1517 1514 1511
1583 1579 1576 1573 1570 1567 1563 1559 1556 1552 1549 1546 1543 1540 1535 1529 1524 1518 1514 1510 1506 1502
1578 1575 1572 1569 1567 1563 1559 1555 1551 1547 1545 1541 1537 1534 1529 1524 1517 1511 1506 1502 1498 1494
1574 1571 1569 1566 1563 1559 1554 1550 1546 1543 1538 1534 1531 1527 1522 1516 1510 1504 1498 1494 1489 1485
1570 1567 1564 1561 1557 1553 1549 1545 1541 1537 1534 1529 1525 1521 1515 1509 1503 1497 1491 1486 1481 1477
1566 1562 1559 1555 1552 1546 1542 1538 1535 1531 1527 1523 1519 1514 1508 1503 1498 1492 1485 1480 1472 1467